CAPE
0 0 0 0 0 0 1 4 23 3 6 4 8 4 37 3 1 0 0 0 1 3 5 6 8 9 2 1 2 1 0 0 0 0 0 0 1 2 1 3 4 3 5 3
0 0 0 0 0 0 0 18 0 0 3 1 0 4 6 3 5 3 2 1 0 0 0 0 0 3 2 1 1 1 1 0 0 1 0 1 2 2 3 3 5 4 6 3
0 0 0 0 0 0 0 0 1 6 11 3 2 5 10 5 4 4 3 3 1 1 0 0 0 0 1 3 2 1 1 1 0 0 1 1 2 1 4 5 4 3 6 3
1 0 0 0 0 0 0 3 5 4 5 8 3 4 6 7 3 3 5 2 0 1 0 0 0 0 0 1 2 4 3 2 1 2 1 1 2 3 3 6 4 3 5 8
2 1 0 0 0 0 1 4 6 6 1 7 0 4 6 4 3 3 1 1 0 0 0 0 0 0 1 1 2 3 2 3 3 2 2 4 4 4 6 6 3 2 6 5
3 1 0 0 0 0 2 6 5 8 7 12 2 1 5 5 5 0 0 0 0 0 1 0 0 0 1 1 2 3 4 5 3 3 4 5 5 5 4 5 5 2 6 7
1 0 0 0 0 0 5 3 9 28 11 9 6 12 13 1 2 0 0 0 0 0 0 0 0 1 2 2 4 5 5 4 3 3 3 4 4 4 4 3 5 8 5 3
0 0 0 0 0 0 0 3 24 32 13 6 7 5 5 4 4 1 0 0 0 0 0 0 0 1 1 2 4 5 4 2 2 1 2 2 4 3 4 5 4 3 3 2
0 0 0 3 1 1 3 6 8 5 2 2 3 2 2 2 2 2 0 0 0 0 0 0 0 1 2 3 4 5 4 2 2 1 1 1 4 9 9 7 6 4 5 10
0 0 1 1 0 2 2 2 1 0 0 0 0 1 1 4 3 6 3 1 2 1 0 1 0 0 3 5 4 5 5 4 4 7 6 3 5 8 9 9 12 15 20 10
0 0 0 1 3 1 4 0 0 0 0 0 0 0 2 3 3 2 1 0 1 2 0 0 0 0 2 4 4 5 6 7 5 7 5 5 5 8 7 10 11 14 20 10
0 0 0 0 0 0 0 0 0 0 0 0 0 0 0 0 5 6 4 2 1 0 0 0 0 1 2 4 4 5 5 5 6 8 9 9 9 5 0 0 0 2 4 7
0 0 0 0 0 0 0 0 0 0 0 0 0 0 0 1 4 4 1 1 1 2 1 1 1 1 2 5 6 4 5 7 9 8 8 9 11 11 9 4 0 0 0 3
0 0 0 0 0 0 0 0 0 0 0 0 0 0 0 1 0 0 0 0 0 0 0 0 0 0 1 4 2 0 2 0 8 9 9 11 11 11 10 9 8 7 3 3
0 0 0 0 0 0 0 0 0 0 0 0 0 0 0 0 0 0 0 0 0 0 0 0 0 0 0 1 0 0 4 6 6 8 5 3 6 7 8 7 8 9 6 3
0 0 0 0 0 0 0 0 0 0 0 0 0 0 0 0 0 0 0 0 0 0 0 0 0 1 1 4 3 4 4 0 1 6 6 6 6 6 5 7 7 8 9 8
0 0 0 0 0 0 0 0 0 0 0 0 0 0 0 0 0 0 0 0 0 0 0 0 0 0 3 4 6 7 7 5 0 6 5 6 6 7 7 7 7 8 10 5
0 0 0 0 0 0 0 0 0 0 0 0 0 0 0 0 0 0 0 0 0 0 0 1 1 4 5 5 6 6 6 6 6 7 8 7 5 7 7 7 7 7 7 6
0 0 0 0 0 0 0 0 0 0 0 0 0 0 0 0 0 0 0 0 0 1 3 6 4 5 6 5 4 5 5 6 5 6 6 2 7 5 6 6 6 6 4 5
0 0 0 0 0 0 0 0 0 0 0 0 0 0 0 0 0 0 0 0 2 5 4 4 3 6 6 4 0 4 5 5 3 5 4 5 7 7 4 1 3 4 3 3
0 0 0 0 0 0 0 0 0 0 0 0 0 0 0 0 0 0 0 1 2 2 1 0 2 4 5 1 2 7 6 6 4 5 5 4 4 5 4 3 3 3 3 2
0 0 0 0 0 0 0 0 0 0 0 0 0 0 0 0 0 0 0 1 4 0 0 4 2 0 1 0 4 6 5 4 4 5 4 4 4 4 4 3 2 2 2 2
0 0 0 0 0 0 0 0 0 0 0 0 0 0 0 0 1 4 2 2 2 0 1 3 0 0 0 4 5 4 3 2 2 2 3 3 3 3 3 3 2 2 1 1
0 0 0 0 0 0 0 0 0 0 0 0 0 0 0 1 1 2 1 0 0 0 0 0 0 0 0 4 3 2 3 3 3 2 2 0 2 1 2 2 1 2 1 1
0 0 0 0 0 0 0 0 0 0 0 0 0 0 0 0 0 1 0 0 0 0 1 0 0 0 2 3 2 2 3 3 2 2 2 1 1 1 2 1 1 1 1 1
0 0 0 0 0 0 0 0 0 0 0 0 0 0 0 0 0 0 0 0 0 0 0 1 0 1 3 2 2 1 2 1 2 1 1 1 0 1 1 0 0 0 0 0
0 0 0 0 0 0 0 0 0 0 0 0 0 0 0 0 0 0 0 0 0 0 0 1 1 0 1 1 1 1 1 2 0 1 1 0 0 1 0 1 1 1 0 0
CIN
-0 -0 -0 -0 -0 -0 -0 -0 -0 -0 -0 -0 -0 -0 -0 -0 -0 -0 -0 -0 -0 -0 -0 -0 -0 -0 -0 -0 -0 -0 -0 -0 -0 -0 -0 -0 -0 -0 -0 -0 -0 -0 -0 -0
-0 -0 -0 -0 -0 -0 -0 -0 -0 -0 -0 -0 -0 -0 -0 -0 -0 -0 -0 -0 -0 -0 -0 -0 -0 -0 -0 -0 -0 -0 -0 -0 -0 -0 -0 -0 -0 -0 -0 -0 -0 -0 -0 -0
-0 -0 -0 -0 -0 -0 -0 -0 -0 -0 -0 -0 -0 -0 -0 -0 -0 -0 -0 -0 -0 -0 -0 -0 -0 -0 -0 -0 -0 -0 -0 -0 -0 -0 -0 -0 -0 -0 -0 -0 -0 -0 -0 -0
-0 -0 -0 -0 -0 -0 -0 -0 -0 -0 -0 -0 -0 -0 -0 -0 -0 -0 -0 -0 -0 -0 -0 -0 -0 -0 -0 -0 -0 -0 -0 -0 -0 -0 -0 -0 -0 -0 -0 -0 -0 -0 -0 -0
-0 -0 -0 -0 -0 -0 -0 -0 -0 -0 -0 -0 -0 -0 -0 -0 -0 -0 -0 -0 -0 -0 -0 -0 -0 -0 -0 -0 -0 -0 -0 -0 -0 -0 -0 -0 -0 -0 -0 -0 -0 -0 -0 -0
-0 -0 -0 -0 -0 -0 -0 -0 -0 -0 -0 -0 -0 -0 -0 -0 -0 -0 -0 -0 -0 -0 -0 -0 -0 -0 -0 -0 -0 -0 -0 -0 -0 -0 -0 -0 -0 -0 -0 -0 -0 -0 -0 -0
-0 -0 -0 -0 -0 -0 -0 -0 -0 -0 -0 -0 -0 -0 -0 -0 -0 -0 -0 -0 -0 -0 -0 -0 -0 -0 -0 -0 -0 -0 -0 -0 -0 -0 -0 -0 -0 -0 -0 -0 -0 -0 -0 -0
-0 -0 -0 -0 -0 -0 -0 -0 -0 -0 -0 -0 -0 -0 -0 -0 -0 -0 -0 -0 -0 -0 -0 -0 -0 -0 -0 -0 -0 -0 -0 -0 -0 -0 -0 -0 -0 -0 -0 -0 -0 -0 -0 -0
-0 -0 -0 -0 -0 -0 -0 -0 -0 -0 -0 -0 -0 -0 -0 -0 -0 -0 -0 -0 -0 -0 -0 -0 -0 -0 -0 -0 -0 -0 -0 -0 -0 -0 -0 -0 -0 -0 -0 -0 -0 -0 -0 -0
-0 -0 -0 -0 -0 -0 -0 -0 -0 -0 -0 -0 -0 -0 -0 -0 -0 -0 -0 -0 -0 -0 -0 -0 -0 -0 -0 -0 -0 -0 -0 -0 -0 -0 -0 -0 -0 -0 -0 -0 -0 -0 -0 -0
-0 -0 -0 -0 -0 -0 -0 -0 -0 -0 -0 -0 -0 -0 -0 -0 -0 -0 -0 -0 -0 -0 -0 -0 -0 -0 -0 -0 -0 -0 -0 -0 -0 -0 -0 -0 -0 -0 -0 -0 -0 -0 -0 -0
-0 -0 -0 -0 -0 -0 -0 -0 -0 -0 -0 -0 -0 -0 -0 -0 -0 -0 -0 -0 -0 -0 -0 -0 -0 -0 -0 -0 -0 -0 -0 -0 -0 -0 -0 -0 -0 -0 -0 -0 -0 -0 -0 -0
-0 -0 -0 -0 -0 -0 -0 -0 -0 -0 -0 -0 -0 -0 -0 -0 -0 -0 -0 -0 -0 -0 -0 -0 -0 -0 -0 -0 -0 -0 -0 -0 -0 -0 -0 -0 -0 -0 -0 -0 -0 -0 -0 -0
-0 -0 -0 -0 -0 -0 -0 -0 -0 -0 -0 -0 -0 -0 -0 -0 -0 -0 -0 -0 -0 -0 -0 -0 -0 -0 -0 -0 -0 -0 -0 -0 -0 -0 -0 -0 -0 -0 -0 -0 -0 -0 -0 -0
-0 -0 -0 -0 -0 -0 -0 -0 -0 -0 -0 -0 -0 -0 -0 -0 -0 -0 -0 -0 -0 -0 -0 -0 -0 -0 -0 -0 -0 -0 -0 -0 -0 -0 -0 -0 -0 -0 -0 -0 -0 -0 -0 -0
-0 -0 -0 -0 -0 -0 -0 -0 -0 -0 -0 -0 -0 -0 -0 -0 -0 -0 -0 -0 -0 -0 -0 -0 -0 -0 -0 -0 -0 -0 -0 -0 -0 -0 -0 -0 -0 -0 -0 -0 -0 -0 -0 -0
-0 -0 -0 -0 -0 -0 -0 -0 -0 -0 -0 -0 -0 -0 -0 -0 -0 -0 -0 -0 -0 -0 -0 -0 -0 -0 -0 -0 -0 -0 -0 -0 -0 -0 -0 -0 -0 -0 -0 -0 -0 -0 -0 -0
-0 -0 -0 -0 -0 -0 -0 -0 -0 -0 -0 -0 -0 -0 -0 -0 -0 -0 -0 -0 -0 -0 -0 -0 -0 -0 -0 -0 -0 -0 -0 -0 -0 -0 -0 -0 -0 -0 -0 -0 -0 -0 -0 -0
-0 -0 -0 -0 -0 -0 -0 -0 -0 -0 -0 -0 -0 -0 -0 -0 -0 -0 -0 -0 -0 -0 -0 -0 -0 -0 -0 -0 -0 -0 -0 -0 -0 -0 -0 -0 -0 -0 -0 -0 -0 -0 -0 -0
-0 -0 -0 -0 -0 -0 -0 -0 -0 -0 -0 -0 -0 -0 -0 -0 -0 -0 -0 -0 -0 -0 -0 -0 -0 -0 -0 -0 -0 -0 -0 -0 -0 -0 -0 -0 -0 -0 -0 -0 -0 -0 -0 -0
-0 -0 -0 -0 -0 -0 -0 -0 -0 -0 -0 -0 -0 -0 -0 -0 -0 -0 -0 -0 -0 -0 -0 -0 -0 -0 -0 -0 -0 -0 -0 -0 -0 -0 -0 -0 -0 -0 -0 -0 -0 -0 -0 -0
-0 -0 -0 -0 -0 -0 -0 -0 -0 -0 -0 -0 -0 -0 -0 -0 -0 -0 -0 -0 -0 -0 -0 -0 -0 -0 -0 -0 -0 -0 -0 -0 -0 -0 -0 -0 -0 -0 -0 -0 -0 -0 -0 -0
-0 -0 -0 -0 -0 -0 -0 -0 -0 -0 -0 -0 -0 -0 -0 -0 -0 -0 -0 -0 -0 -0 -0 -0 -0 -0 -0 -0 -0 -0 -0 -0 -0 -0 -0 -0 -0 -0 -0 -0 -0 -0 -0 -0
-0 -0 -0 -0 -0 -0 -0 -0 -0 -0 -0 -0 -0 -0 -0 -0 -0 -0 -0 -0 -0 -0 -0 -0 -0 -0 -0 -0 -0 -0 -0 -0 -0 -0 -0 -0 -0 -0 -0 -0 -0 -0 -0 -0
-0 -0 -0 -0 -0 -0 -0 -0 -0 -0 -0 -0 -0 -0 -0 -0 -0 -0 -0 -0 -0 -0 -0 -0 -0 -0 -0 -0 -0 -0 -0 -0 -0 -0 -0 -0 -0 -0 -0 -0 -0 -0 -0 -0
-0 -0 -0 -0 -0 -0 -0 -0 -0 -0 -0 -0 -0 -0 -0 -0 -0 -0 -0 -0 -0 -0 -0 -0 -0 -0 -0 -0 -0 -0 -0 -0 -0 -0 -0 -0 -0 -0 -0 -0 -0 -0 -0 -0
-0 -0 -0 -0 -0 -0 -0 -0 -0 -0 -0 -0 -0 -0 -0 -0 -0 -0 -0 -0 -0 -0 -0 -0 -0 -0 -0 -0 -0 -0 -0 -0 -0 -0 -0 -0 -0 -0 -0 -0 -0 -0 -0 -0
Wind_Speed
7 12 11 13 10 7 7 9 8 10 16 9 14 15 10 11 12 14 16 17 17 16 15 14 15 15 16 16 17 16 15 14 16 14 13 12 13 12 12 11 11 12 12 11
3 2 2 4 6 3 5 6 8 8 12 11 14 14 10 12 14 14 16 17 17 17 18 16 16 15 14 13 12 13 13 14 13 12 12 13 13 13 12 12 12 13 12 12
2 4 3 3 4 1 4 3 3 7 7 13 15 15 7 11 13 14 15 16 16 15 15 15 15 14 14 13 15 16 15 15 15 15 15 15 14 13 13 13 12 13 13 12
3 5 2 4 3 3 3 4 2 5 10 10 13 15 6 10 13 14 14 15 15 14 14 14 14 15 14 13 12 13 13 13 14 15 15 14 14 14 14 13 13 13 13 14
1 2 2 3 1 3 3 2 2 6 9 11 13 8 4 12 11 11 14 13 13 14 14 15 15 16 14 13 14 14 15 16 16 15 15 14 14 15 13 13 14 13 14 14
2 2 3 4 1 4 2 4 6 4 7 8 11 7 6 13 11 12 13 12 13 14 13 14 16 15 14 14 14 15 15 15 14 13 13 13 14 14 12 12 13 12 14 12
3 3 5 1 6 4 4 3 7 5 5 5 5 5 8 10 10 12 12 13 13 13 13 14 15 15 14 14 15 16 15 14 14 14 14 13 14 12 13 13 11 11 13 13
3 2 3 1 2 3 3 3 4 5 4 6 7 9 9 9 10 11 13 14 14 13 13 13 14 13 15 15 15 16 15 14 14 14 11 11 13 13 13 12 12 12 12 12
6 2 3 1 2 1 2 2 3 4 4 6 7 9 10 11 12 10 13 12 12 12 13 12 13 12 14 15 16 15 15 15 13 13 12 12 12 12 10 10 9 10 11 10
3 2 4 5 4 3 3 3 1 4 4 5 7 7 8 9 10 9 10 11 10 11 11 12 13 13 13 14 14 13 13 12 12 11 13 11 9 9 9 9 10 9 10 11
4 4 2 4 5 3 2 5 4 4 5 6 7 8 8 7 8 9 10 11 11 11 13 14 15 15 14 15 15 14 13 11 13 11 12 12 11 9 9 9 10 10 10 12
4 4 3 3 3 4 7 4 4 3 5 6 7 9 10 9 8 9 11 11 12 13 13 13 14 14 13 14 14 14 13 10 10 9 9 8 9 10 13 14 14 15 19 17
3 6 4 9 7 5 6 5 4 5 4 5 6 7 9 9 9 9 8 9 9 10 10 11 11 12 11 11 12 10 9 9 7 7 8 9 9 9 11 12 15 14 18 19
7 10 6 5 4 6 6 5 5 5 5 6 7 7 8 9 9 8 9 10 8 8 7 8 9 9 9 9 9 8 8 8 7 8 8 8 8 8 8 9 11 11 14 16
6 6 7 11 8 7 6 4 5 6 6 7 7 9 9 10 10 9 8 8 9 6 7 8 8 10 10 9 9 8 8 8 8 8 7 8 9 9 9 9 10 10 10 12
9 10 8 8 7 6 5 5 6 6 6 7 8 9 9 8 8 8 7 6 8 9 9 9 9 11 11 10 11 9 9 11 9 8 8 9 8 8 9 9 9 9 9 11
7 5 5 5 4 5 5 5 5 5 6 7 8 8 9 8 7 8 9 9 8 7 7 9 11 11 10 9 11 8 8 8 9 7 8 8 8 8 8 8 8 8 8 11
9 9 8 7 5 5 5 4 5 5 5 5 5 5 6 6 7 8 8 9 8 8 9 12 11 11 10 11 10 8 7 7 7 7 7 8 8 7 7 7 8 8 8 9
9 9 8 7 5 5 4 4 4 3 3 3 5 6 4 4 6 8 8 6 10 12 14 13 16 13 12 12 11 7 7 8 7 7 7 8 7 7 7 8 8 9 9 9
9 8 8 7 6 5 4 3 1 3 3 3 3 4 7 6 7 7 6 7 9 9 13 14 13 11 11 11 10 7 8 8 8 7 7 7 7 8 7 9 9 9 9 9
7 7 6 6 5 4 4 2 2 4 4 2 3 4 5 6 5 5 9 8 13 13 12 12 11 10 8 9 8 7 8 7 7 7 7 7 7 7 8 8 8 8 8 8
4 4 4 4 4 3 3 3 4 3 3 3 2 3 5 7 6 7 2 6 9 13 9 9 9 12 9 9 7 8 8 8 7 6 7 7 6 6 7 7 7 7 8 8
4 4 4 3 3 3 1 3 3 3 3 3 4 5 5 4 4 7 8 10 7 10 8 8 11 12 11 8 7 8 8 8 7 7 7 6 6 6 6 6 6 7 7 7
4 3 3 3 3 2 4 4 3 4 1 3 3 2 4 5 5 4 5 6 8 8 7 9 10 11 9 7 7 7 7 7 7 6 6 7 6 5 6 6 6 6 6 7
4 4 4 3 3 2 2 3 1 3 3 4 4 4 5 3 3 5 5 5 7 7 7 9 10 9 7 7 7 7 7 7 7 6 7 6 6 6 6 6 6 5 6 6
4 4 3 3 3 2 2 1 2 2 2 3 3 4 4 4 4 4 4 5 6 6 7 7 7 7 7 7 7 7 7 7 7 7 7 6 6 6 6 6 6 6 6 6
5 3 3 3 2 2 1 1 1 2 2 2 2 3 4 4 5 5 5 5 5 5 5 6 6 7 7 7 7 7 6 6 8 6 6 6 6 6 6 5 5 5 5 5
Wind_Direction
268 272 267 268 262 241 232 258 266 307 303 343 348 350 358 7 12 7 2 1 2 359 352 356 354 352 352 11 353 345 346 355 4 1 0 349 350 347 353 353 345 334 322 315
272 227 223 227 185 279 260 263 266 288 296 0 342 355 3 9 6 4 360 353 352 356 352 353 358 344 353 352 338 344 353 354 351 357 356 360 347 347 345 347 339 329 316 311
240 325 331 218 172 301 288 215 269 293 344 339 339 344 23 5 3 358 353 348 347 350 348 346 351 348 346 344 350 354 352 346 355 2 355 351 340 342 343 341 333 322 314 313
313 333 260 97 112 298 254 240 344 332 331 342 335 334 57 17 359 355 353 348 346 344 347 348 347 344 344 351 357 359 350 347 359 360 348 341 341 342 340 333 326 319 315 312
339 306 303 151 321 337 349 112 15 332 336 339 337 333 133 21 4 354 353 349 342 339 342 344 351 348 350 354 359 354 354 353 354 350 342 340 341 335 332 324 323 320 315 308
160 244 261 114 8 331 228 228 8 341 340 345 338 344 353 354 350 358 357 356 350 341 342 349 348 350 356 353 357 356 351 349 344 348 345 338 337 331 327 321 315 315 311 306
151 239 282 273 318 302 257 31 341 324 332 352 339 326 328 343 351 357 356 352 352 349 351 350 348 348 350 352 0 351 345 343 345 350 343 338 333 329 329 325 321 318 316 315
124 193 273 193 250 286 24 335 338 349 8 340 334 331 341 344 345 348 350 352 352 353 350 348 349 350 353 354 349 347 343 345 350 348 346 338 331 331 332 330 327 328 326 320
199 219 121 119 183 202 285 318 333 335 353 348 346 343 338 338 339 347 353 347 348 347 345 350 352 355 351 347 346 342 344 344 344 346 345 346 340 337 329 334 336 334 328 322
330 128 204 189 193 194 213 235 50 44 19 8 348 352 343 339 340 341 342 342 341 344 342 344 351 356 358 346 342 342 339 333 338 342 347 347 342 340 336 340 338 338 336 322
252 249 183 200 199 183 168 102 78 67 39 14 352 352 345 339 345 345 344 346 344 344 344 347 349 353 354 346 347 345 343 338 342 347 348 343 347 340 342 345 346 348 346 338
213 181 132 136 108 89 119 102 71 38 18 19 0 347 344 341 341 347 347 344 344 343 342 343 344 344 346 348 348 343 338 343 339 338 339 343 342 341 347 356 352 358 357 358
153 147 102 115 91 96 99 77 71 56 40 4 1 355 349 338 340 342 344 338 333 327 324 330 331 335 339 339 336 329 324 328 329 331 348 350 347 344 342 342 347 354 359 356
125 120 121 161 124 84 85 77 76 65 35 21 1 353 347 344 333 326 334 328 317 317 322 323 317 308 315 323 323 321 328 330 343 349 353 349 351 349 347 347 344 344 352 355
84 64 90 116 107 89 74 67 64 37 19 13 6 357 352 342 333 327 331 329 322 316 323 322 319 319 327 322 332 339 349 355 352 354 356 352 355 358 355 354 349 345 345 354
110 105 113 109 111 94 80 60 53 29 20 12 7 358 347 341 346 345 328 332 348 337 319 330 325 327 321 336 346 353 356 357 357 359 358 359 359 1 358 356 352 353 357 356
121 136 136 120 109 95 81 75 56 37 22 16 2 352 352 346 351 351 342 345 332 320 324 338 329 323 333 350 354 358 354 357 356 2 4 3 2 2 1 355 360 353 1 7
92 91 81 100 112 113 100 80 58 41 22 356 351 355 355 3 346 334 335 325 335 347 356 347 333 340 351 356 359 0 359 358 5 7 4 7 6 6 7 7 8 8 13 16
98 101 97 92 89 96 87 77 63 43 4 359 359 359 320 336 345 331 328 336 4 360 354 346 346 354 2 2 0 4 5 5 9 12 9 8 16 18 17 18 20 23 25 22
102 100 102 96 77 67 75 55 3 30 22 10 357 9 4 352 343 332 339 2 7 353 340 348 350 358 1 2 358 10 9 12 13 16 19 18 21 25 25 28 28 29 32 30
117 115 106 103 93 79 56 32 15 22 9 42 13 4 337 319 332 332 10 7 0 355 346 349 359 359 1 359 5 14 16 17 20 19 20 21 23 28 32 33 33 32 35 36
127 118 123 116 104 80 34 32 45 56 42 46 25 353 350 357 344 357 20 3 347 353 351 359 357 358 2 0 17 18 21 22 26 22 24 25 26 28 35 36 39 37 38 40
134 144 143 144 119 81 77 41 31 23 16 18 4 357 351 336 346 3 0 3 355 358 2 5 351 2 5 19 21 23 25 25 25 29 26 26 25 25 32 39 45 47 45 44
133 135 120 121 128 108 60 20 21 28 38 19 29 349 342 355 6 13 0 351 358 360 9 4 358 5 10 21 20 25 25 26 24 25 31 34 34 34 33 32 43 50 57 60
124 123 126 134 106 79 56 11 48 39 38 31 29 28 19 11 338 338 352 355 1 4 9 4 359 8 24 25 25 25 28 28 23 26 27 34 32 37 39 42 43 48 54 59
143 133 120 91 83 104 89 40 45 29 5 18 35 17 10 8 3 6 5 4 9 6 12 9 12 14 21 23 25 27 28 25 28 30 29 28 30 38 42 45 48 52 58 62
109 112 121 109 85 64 51 27 26 53 40 12 349 18 2 3 6 9 9 10 9 9 10 11 15 18 20 22 26 29 31 36 33 30 34 36 35 35 36 43 49 54 58 63